Flag for Jamaica Weather past 2 weeks in May Pen, Jamaica

Now
82 °F

Passing clouds.


Feels Like: 89 °F
Forecast: 72 / 89 °F
Wind: 8 mph from North

Location: Kingston / Norman Manley

Current Time: Aug 21, 2014 at 12:18:40 AM

Latest Report: Aug 21, 2014 at 12:00 AM


Visibility: N/A

Pressure: 29.98 "Hg

Humidity: 79%

Dew point: 75 °F

Location of May PenLocation

Historic Weather in May Pen — Graph

°F

May Pen temperature yesterday

Maximum temperature yesterday: 91 °F (at 12:00 PM)
Minimum temperature yesterday: 82 °F (at 1:00 AM)
Average temperature yesterday: 85 °F

Past Weeks' High & Low Weather Summary

 TemperatureHumidityPressure
High93 °F (Aug 17, 2:00 PM)94% (Aug 7, 7:00 PM)30.01 "Hg (Aug 7, 7:00 PM)
Low77 °F (Aug 7, 7:00 PM)56% (Aug 17, 4:00 PM)29.86 "Hg (Aug 18, 3:00 PM)
Average86 °F72%29.95 "Hg
* Reported Aug 5 11:00 PM — Aug 20 11:00 PM, May Pen, Weather by CustomWeather, © 2014

Note: Actual official high and low records may vary slightly from our data, if they occured in-between our weather recording intervals... More about our weather records

Advertising

May Pen weather history for previous 24 hours

 ConditionsComfort  
Time TempWeatherWind HumidityBarometerVisibility
11:00 PM
Aug 20
82 °FPassing clouds.7 mph79%30.01 "HgN/A
10:00 PM82 °FPassing clouds.6 mph79%30.01 "HgN/A
9:00 PM84 °FPassing clouds.3 mph79%30.01 "HgN/A
8:00 PM84 °FPassing clouds.7 mph74%29.98 "HgN/A
7:00 PM84 °FPassing clouds.8 mph74%29.95 "HgN/A
6:00 PM84 °FPassing clouds.7 mph74%29.95 "HgN/A
5:00 PM84 °FScattered clouds.20 mph74%29.92 "HgN/A
4:00 PM88 °FScattered clouds.23 mph70%29.92 "HgN/A
3:00 PM90 °FScattered clouds.24 mph67%29.92 "HgN/A
2:00 PM88 °FPassing clouds.18 mph70%29.95 "HgN/A
1:00 PMN/A17 mphN/AN/AN/A
12:00 PM91 °FScattered showers. Passing clouds.25 mph56%29.98 "HgN/A
11:00 AM90 °FPassing clouds.28 mph67%29.98 "HgN/A
10:00 AM90 °FPassing clouds.20 mph67%29.98 "HgN/A
9:00 AM86 °FPassing clouds.5 mph70%29.98 "HgN/A
8:00 AM84 °FPassing clouds.6 mph66%29.98 "HgN/A
7:00 AM82 °FPassing clouds.5 mph79%29.95 "HgN/A
6:00 AM82 °FPassing clouds.5 mph74%29.92 "HgN/A
5:00 AM82 °FPassing clouds.5 mph74%29.92 "HgN/A
4:00 AM82 °FPassing clouds.6 mph79%29.92 "HgN/A
3:00 AM82 °FPassing clouds.7 mph79%29.92 "HgN/A
2:00 AM84 °FPassing clouds.8 mph74%29.92 "HgN/A
1:00 AM82 °FPassing clouds.8 mph84%29.95 "HgN/A
12:00 AM84 °FPassing clouds.6 mph74%29.95 "HgN/A
Weather by CustomWeather, © 2014

See weather overviewHow to use our weather pages